This is the latest recevied weather packets stored in our database for station/object OM2RC-6. If no packets are shown the sender has not sent any weather packets the latest 10 day(s).
| Time | Temp. | Humidity | Pressure | Rain* | Wind** | Luminosity | Snow |
|---|---|---|---|---|---|---|---|
| 1777993576 | 24.44° C | 43% | 1007.7 hPa | - | - | - | - |
| 1777992974 | 24.44° C | 43% | 1007.9 hPa | - | - | - | - |
| 1777992372 | 24.44° C | 42% | 1007.6 hPa | - | - | - | - |
| 1777992071 | 25° C | 41% | 1007.8 hPa | - | - | - | - |
| 1777991769 | 25° C | 41% | 1007.8 hPa | - | - | - | - |
| 1777991468 | 25° C | 40% | 1007.7 hPa | - | - | - | - |
| 1777991167 | 25.56° C | 40% | 1007.8 hPa | - | - | - | - |
| 1777990866 | 25° C | 40% | 1007.9 hPa | - | - | - | - |
| 1777989358 | 25.56° C | 39% | 1007.8 hPa | - | - | - | - |
| 1777989056 | 25.56° C | 39% | 1008 hPa | - | - | - | - |
| 1777988755 | 25.56° C | 39% | 1008.1 hPa | - | - | - | - |
| 1777988454 | 25.56° C | 40% | 1008.2 hPa | - | - | - | - |
| 1777988152 | 26.67° C | 40% | 1008.1 hPa | - | - | - | - |
| 1777987851 | 26.11° C | 41% | 1008.3 hPa | - | - | - | - |
| 1777987549 | 26.11° C | 42% | 1008.4 hPa | - | - | - | - |
| 1777987248 | 26.11° C | 42% | 1008.4 hPa | - | - | - | - |
| 1777986946 | 26.67° C | 41% | 1008.5 hPa | - | - | - | - |
| 1777986645 | 25.56° C | 43% | 1008.6 hPa | - | - | - | - |
| 1777986344 | 25.56° C | 43% | 1008.7 hPa | - | - | - | - |
| 1777986043 | 25° C | 43% | 1008.6 hPa | - | - | - | - |
| 1777985742 | 25° C | 44% | 1008.8 hPa | - | - | - | - |
| 1777985440 | 25° C | 43% | 1008.9 hPa | - | - | - | - |
| 1777985139 | 25° C | 43% | 1009 hPa | - | - | - | - |
| 1777984838 | 25.56° C | 43% | 1009 hPa | - | - | - | - |
| 1777984236 | 24.44° C | 44% | 1009 hPa | - | - | - | - |
* Rain since midnight (hover to see other rain measurements)
** Current wind speed in m/s (hover to see current wind gust speed)